Location: Godzisko
(49.9648°N, 19.4576°E)
Time: 07:37:13
(UTC+00:00)

Cosmos 1707 Rocket - Pass Details

Date: 20 April 2021
Orbit: 605 x 631 km, 82.5° (Epoch: 06 May)

Event Time Altitude Azimuth Distance (km) Brightness Sun altitude
Exits shadow 00:28:29 55° 305° (NW) 732 3.8 -24.2°
Drops below altitude 10° 00:32:27 10° 3° (N) 1,969 7.0 -23.8°
Sets 00:34:43 0° 7° (N) 2,879 8.1 -23.7°
